Location: Bord�res
(43.2000°N, 0.2167°W)
Time: 14:06:39
(UTC+00:00)

Cosmos 1703 Rocket - Pass Details

Date: 03 March 2021
Orbit: 604 x 634 km, 82.5° (Epoch: 13 April)

Event Time Altitude Azimuth Distance (km) Brightness Sun altitude
Rises 18:48:28 0° 0° (N) 2,908 7.0 -11.0°
Reaches altitude 10° 18:50:54 10° 10° (N) 1,992 6.1 -11.4°
Maximum altitude 18:54:53 33° 75° (ENE) 1,042 4.2 -12.1°
Drops below altitude 10° 18:58:49 10° 140° (SE) 1,962 5.7 -12.9°
Enters shadow 18:59:32 - 144° (SE) 2,222 6.0 -13.0°
